Погода в Жирятино

Россия / Брянская область     53˚13′33″N   33˚44′18″E
темп.,
°C
ветер,
м/с
пор.,
м/с
влажн.,
%
обл.,
%
осадки,
мм/ч
давл.,
гПа
погр.,
м
16 января, сб
сб1600:00−15˚ссз479598 0.1 1009244
03:00−17˚сз479596 0.2 1009237
06:00−17˚сз5895100 0.3 1008280
09:00−18˚сз479596 0.4 1010255
12:00−17˚зсз469484 0.1 1011273
15:00−16˚сз479291 0.1 1012392
18:00−17˚зсз4794100 0.1 1012330
21:00−18˚зсз4895100 0.1 1013321
17 января, вс
вс1700:00−17˚зсз4895100 0.2 1014323
03:00−17˚зсз4795100 0.4 1014349
06:00−16˚зсз3695100 0.4 1014384
09:00−17˚сз3596100 0.5 1015236
12:00−16˚ссз3591100 0.0 1016372
15:00−15˚ссз3490100 0.0 1016390
18:00−18˚ссз3495100 0.0 1017100
21:00−19˚ссв3496100 0.0 101896
18 января, пн
пн1800:00−20˚св2396100 0.0 101859
03:00−21˚ссв2397100 0.0 101999
06:00−21˚в1297100 0.0 101956
09:00−22˚ссв2296100 0.0 102037
12:00−20˚всв129286 0.0 1020226
15:00−18˚с128893 0.0 1019301
18:00−21˚сз229497 0.0 102020
21:00−21˚ссз129399 0.0 102020
19 января, вт
вт1900:00−21˚сз1193100 0.0 102020
03:00−20˚сз2294100 0.0 101920
06:00−22˚зсз119863 0.0 101920
09:00−21˚зюз129882 0.0 101920
12:00−17˚з129499 0.0 1019156
15:00−14˚зюз129399 0.0 1019203
18:00−17˚зюз2298100 0.0 102020
21:00−17˚з129893 0.0 102120
20 января, ср
ср2000:00−18˚зюз129861 0.0 102120
03:00−18˚юз229858 0.0 102220
06:00−18˚юз229862 0.0 102220
09:00−17˚ю239764 0.0 102321
12:00−13˚ю369434 0.0 1023203
15:00−10˚ю489348 0.0 1022276
18:00−13˚ю4109419 0.0 1022191
21:00−12˚ю5119641 0.0 1021266